• In Netherlands
  • List of Countries
  • For 7 days
  • Water Temperature
  • Satellite Maps
  • Weather Map
  • Weather Widgets
  • user-avatar
    Login

    Hourly Weather Lezhe

    Today, 20 January, Saturday

    Time Temperature Precipitation Wind Pressure Humidity
    00:00 +6°C° 0.5 mm 4 mps 734 mmHg 88%
    01:00 +6°C° 0.5 mm 5 mps 734 mmHg 88%
    02:00 +6°C° 0.7 mm 5 mps 734 mmHg 89%
    03:00 +6°C° 0.7 mm 5 mps 734 mmHg 89%
    04:00 +6°C° 0.7 mm 5 mps 733 mmHg 89%
    05:00 +7°C° 0.9 mm 5 mps 733 mmHg 90%
    06:00 +7°C° 0.9 mm 5 mps 733 mmHg 91%
    07:00 +7°C° 0.9 mm 5 mps 733 mmHg 92%
    08:00 +7°C° 1.4 mm 5 mps 733 mmHg 92%
    09:00 +8°C° 1.4 mm 5 mps 733 mmHg 92%
    10:00 +8°C° 1.4 mm 5 mps 733 mmHg 92%
    11:00 +8°C° 1.7 mm 5 mps 733 mmHg 92%
    12:00 +8°C° 1.7 mm 5 mps 732 mmHg 92%
    13:00 +8°C° 1.7 mm 5 mps 732 mmHg 92%
    14:00 +8°C° 1.4 mm 5 mps 732 mmHg 92%
    15:00 +8°C° 1.4 mm 4 mps 732 mmHg 92%
    16:00 +9°C° 1.4 mm 3 mps 732 mmHg 92%
    17:00 +8°C° 0.6 mm 3 mps 733 mmHg 93%
    18:00 +7°C° 0.6 mm 2 mps 733 mmHg 93%
    19:00 +7°C° 0.6 mm 2 mps 734 mmHg 94%
    20:00 +6°C° 0 mm 2 mps 734 mmHg 93%
    21:00 +6°C° 0 mm 2 mps 734 mmHg 93%
    22:00 +6°C° 0 mm 2 mps 734 mmHg 93%
    23:00 +5°C° 0 mm 2 mps 734 mmHg 93%

    Tomorrow, 21 January, Sunday

    Time Temperature Precipitation Wind Pressure Humidity
    00:00 +5°C° 0 mm 2 mps 734 mmHg 92%
    01:00 +5°C° 0 mm 2 mps 734 mmHg 92%
    02:00 +5°C° 0 mm 2 mps 733 mmHg 90%
    03:00 +5°C° 0 mm 2 mps 733 mmHg 89%
    04:00 +5°C° 0 mm 2 mps 732 mmHg 87%
    05:00 +5°C° 0.1 mm 2 mps 732 mmHg 87%
    06:00 +6°C° 0.1 mm 2 mps 731 mmHg 86%
    07:00 +6°C° 0.1 mm 2 mps 731 mmHg 86%
    08:00 +6°C° 0.5 mm 2 mps 731 mmHg 85%
    09:00 +7°C° 0.5 mm 2 mps 731 mmHg 85%
    10:00 +8°C° 0.5 mm 2 mps 731 mmHg 85%
    11:00 +8°C° 1 mm 2 mps 730 mmHg 86%
    12:00 +8°C° 1 mm 2 mps 730 mmHg 87%
    13:00 +8°C° 1 mm 2 mps 729 mmHg 89%
    14:00 +9°C° 0.9 mm 1 mps 729 mmHg 89%
    15:00 +8°C° 0.9 mm 1 mps 729 mmHg 90%
    16:00 +8°C° 0.9 mm 1 mps 729 mmHg 90%
    17:00 +8°C° 0.2 mm 1 mps 729 mmHg 89%
    18:00 +7°C° 0.2 mm 1 mps 729 mmHg 88%
    19:00 +7°C° 0.2 mm 1 mps 730 mmHg 88%
    20:00 +7°C° 0.1 mm 1 mps 730 mmHg 87%
    21:00 +7°C° 0.1 mm 1 mps 730 mmHg 87%
    22:00 +6°C° 0.1 mm 2 mps 731 mmHg 87%
    23:00 +5°C° 0 mm 2 mps 731 mmHg 86%

    Day after tomorrow, 22 January, Monday

    Time Temperature Precipitation Wind Pressure Humidity
    00:00 +5°C° 0 mm 2 mps 731 mmHg 86%
    01:00 +5°C° 0 mm 2 mps 732 mmHg 86%
    02:00 +4°C° 0 mm 2 mps 732 mmHg 85%
    03:00 +3°C° 0 mm 3 mps 732 mmHg 84%
    04:00 +2°C° 0 mm 3 mps 733 mmHg 83%
    05:00 +1°C° 0 mm 3 mps 733 mmHg 81%
    06:00 +1°C° 0 mm 3 mps 734 mmHg 79%
    07:00 -1°C° 0 mm 4 mps 734 mmHg 78%
    08:00 0°C° 0 mm 4 mps 735 mmHg 70%
    09:00 +1°C° 0 mm 4 mps 735 mmHg 62%
    10:00 +3°C° 0 mm 4 mps 736 mmHg 54%
    11:00 +4°C° 0 mm 4 mps 736 mmHg 52%
    12:00 +5°C° 0 mm 4 mps 736 mmHg 49%
    13:00 +5°C° 0 mm 3 mps 736 mmHg 46%
    14:00 +5°C° 0 mm 3 mps 736 mmHg 50%
    15:00 +4°C° 0 mm 3 mps 736 mmHg 54%
    16:00 +3°C° 0 mm 3 mps 737 mmHg 58%
    17:00 +3°C° 0 mm 3 mps 737 mmHg 59%
    18:00 +2°C° 0 mm 3 mps 738 mmHg 60%
    19:00 +1°C° 0 mm 3 mps 738 mmHg 62%
    20:00 +1°C° 0 mm 3 mps 738 mmHg 60%
    21:00 +1°C° 0 mm 3 mps 739 mmHg 59%
    22:00 +1°C° 0 mm 3 mps 739 mmHg 58%
    23:00 +2°C° 0 mm 2 mps 739 mmHg 57%

    23 January, Tuesday

    Time Temperature Precipitation Wind Pressure Humidity
    00:00 +2°C° 0 mm 2 mps 739 mmHg 57%
    01:00 +2°C° 0 mm 2 mps 738 mmHg 56%
    02:00 +2°C° 0 mm 2 mps 738 mmHg 56%
    03:00 +3°C° 0 mm 2 mps 738 mmHg 56%
    04:00 +3°C° 0 mm 2 mps 738 mmHg 56%
    05:00 +3°C° 0 mm 2 mps 739 mmHg 56%
    06:00 +3°C° 0 mm 2 mps 739 mmHg 56%
    07:00 +3°C° 0 mm 2 mps 739 mmHg 56%
    08:00 +5°C° 0 mm 2 mps 739 mmHg 54%
    09:00 +7°C° 0 mm 1 mps 740 mmHg 53%
    10:00 +9°C° 0 mm 1 mps 740 mmHg 51%
    11:00 +9°C° 0 mm 1 mps 740 mmHg 52%
    12:00 +9°C° 0 mm 2 mps 740 mmHg 52%
    13:00 +9°C° 0 mm 2 mps 741 mmHg 53%
    14:00 +9°C° 0 mm 2 mps 741 mmHg 58%
    15:00 +8°C° 0 mm 2 mps 741 mmHg 63%
    16:00 +7°C° 0 mm 3 mps 742 mmHg 67%
    17:00 +5°C° 0 mm 3 mps 743 mmHg 69%
    18:00 +4°C° 0 mm 3 mps 743 mmHg 70%
    19:00 +3°C° 0 mm 4 mps 744 mmHg 72%
    20:00 +1°C° 0 mm 4 mps 745 mmHg 72%
    21:00 +1°C° 0 mm 4 mps 745 mmHg 72%
    22:00 +1°C° 0 mm 4 mps 746 mmHg 72%
    23:00 0°C° 0 mm 4 mps 746 mmHg 72%

    24 January, Wednesday

    Time Temperature Precipitation Wind Pressure Humidity
    00:00 0°C° 0 mm 4 mps 746 mmHg 71%
    01:00 0°C° 0 mm 4 mps 747 mmHg 70%
    02:00 -1°C° 0 mm 4 mps 747 mmHg 70%
    03:00 -1°C° 0 mm 4 mps 747 mmHg 70%
    04:00 -1°C° 0 mm 4 mps 747 mmHg 69%
    05:00 -1°C° 0 mm 4 mps 747 mmHg 68%
    06:00 -1°C° 0 mm 4 mps 748 mmHg 68%
    07:00 -1°C° 0 mm 4 mps 748 mmHg 67%
    08:00 0°C° 0 mm 4 mps 748 mmHg 62%
    09:00 +3°C° 0 mm 4 mps 749 mmHg 58%
    10:00 +5°C° 0 mm 3 mps 749 mmHg 53%
    11:00 +5°C° 0 mm 3 mps 749 mmHg 51%
    12:00 +7°C° 0 mm 3 mps 748 mmHg 49%
    13:00 +8°C° 0 mm 2 mps 748 mmHg 46%
    14:00 +8°C° 0 mm 2 mps 748 mmHg 51%
    15:00 +7°C° 0 mm 2 mps 748 mmHg 55%
    16:00 +7°C° 0 mm 2 mps 748 mmHg 59%
    17:00 +5°C° 0 mm 2 mps 749 mmHg 61%
    18:00 +4°C° 0 mm 2 mps 749 mmHg 64%
    19:00 +3°C° 0 mm 2 mps 749 mmHg 66%
    20:00 +3°C° 0 mm 2 mps 749 mmHg 65%
    21:00 +3°C° 0 mm 2 mps 749 mmHg 63%
    22:00 +3°C° 0 mm 2 mps 749 mmHg 62%
    23:00 +3°C° 0 mm 2 mps 749 mmHg 60%

    25 January, Thursday

    Time Temperature Precipitation Wind Pressure Humidity
    00:00 +3°C° 0 mm 2 mps 749 mmHg 58%
    01:00 +3°C° 0 mm 2 mps 749 mmHg 56%
    02:00 +3°C° 0 mm 2 mps 749 mmHg 54%
    03:00 +3°C° 0 mm 2 mps 749 mmHg 52%
    04:00 +3°C° 0 mm 2 mps 749 mmHg 51%
    05:00 +3°C° 0 mm 2 mps 749 mmHg 49%
    06:00 +3°C° 0 mm 2 mps 749 mmHg 48%
    07:00 +3°C° 0 mm 2 mps 749 mmHg 46%
    08:00 +6°C° 0 mm 1 mps 749 mmHg 45%
    09:00 +8°C° 0 mm 1 mps 748 mmHg 43%
    10:00 +9°C° 0 mm 1 mps 748 mmHg 42%
    11:00 +10°C° 0 mm 1 mps 748 mmHg 42%
    12:00 +11°C° 0 mm 1 mps 747 mmHg 43%
    13:00 +11°C° 0 mm 1 mps 747 mmHg 43%
    14:00 +11°C° 0 mm 1 mps 747 mmHg 47%
    15:00 +10°C° 0 mm 1 mps 746 mmHg 52%
    16:00 +9°C° 0 mm 1 mps 746 mmHg 57%
    17:00 +8°C° 0 mm 1 mps 746 mmHg 58%
    18:00 +7°C° 0 mm 1 mps 746 mmHg 59%
    19:00 +6°C° 0 mm 1 mps 746 mmHg 60%
    20:00 +6°C° 0 mm 1 mps 746 mmHg 59%
    21:00 +6°C° 0 mm 1 mps 746 mmHg 59%
    22:00 +6°C° 0 mm 1 mps 746 mmHg 58%
    23:00 +6°C° 0 mm 1 mps 746 mmHg 58%
    Show more